NOAA NWS Hourly Roundups by Site

Regional Weather Roundup for San Diego, CA

To Select Another Site Choose from List

Select Site:  

000
ASUS46 KSGX 100810
RWRSGX

SAN DIEGO HOURLY WEATHER ROUNDUP
NATIONAL WEATHER SERVICE SAN DIEGO CA
100 AM PDT MON MAY 10 2021

NOTE: "FAIR" INDICATES FEW OR NO CLOUDS BELOW 12,000 FEET WITH NO
SIGNIFICANT WEATHER AND/OR OBSTRUCTIONS TO VISIBILITY.

CAZ042-043-060-061-PZZ750-775-100900-

GREATER SAN DIEGO AREA

CITY           SKY/WX    TMP DP  RH WIND       PRES   REMARKS
SAN DIEGO AP   CLOUDY    62  51  67 CALM      29.93F
CHULA VISTA      N/A     60  54  79 CALM      29.76F
BROWN FIELD    CLOUDY    60  49  66 CALM      29.91F
MIRAMAR MCAS   CLOUDY    60  52  74 S3        29.91F
MONTGOMERY FLD CLOUDY    59  51  75 SW6       29.92S
GILLESPIE FLD  CLOUDY    59  52  77 W5        29.91S
LEMON GROVE      N/A     58  53  84 CALM      29.89F

$$

NORTH SAN DIEGO COUNTY

CITY           SKY/WX    TMP DP  RH WIND       PRES   REMARKS
CAMP PENDLETON CLOUDY    63  53  70 CALM      29.91F
OCEANSIDE AP   CLOUDY    60  53  77 SW3       29.90F
OCEANSIDE HBR    N/A     60  55  82 CALM      29.97F
VISTA            N/A     58  53  84 CALM      29.90S
CARLSBAD       CLOUDY    60  52  74 CALM      29.90F
ENCINITAS        N/A     58  54  85 CALM        N/A
LA JOLLA SCRIP   N/A     59  53  80 CALM      29.91F
FALLBROOK      CLOUDY    55  52  88 CALM      29.92F
ESCONDIDO        N/A     58  53  82 CALM      29.91F
SAN MARCOS       N/A     57  53  86 S1        29.94F
RANCHO BERNARD   N/A     58  53  83 S1        29.90F

$$

EAST SAN DIEGO COUNTY

CITY           SKY/WX    TMP DP  RH WIND       PRES   REMARKS
RAMONA         CLOUDY    55  51  86 SW3       29.91F
LA MESA          N/A     57  51  82 CALM      29.86F
DESCANSO N       N/A     46  40  79 NE5       29.87F

$$

ORANGE COUNTY AND THE LOS ANGELES BASIN

CITY           SKY/WX    TMP DP  RH WIND       PRES   REMARKS
JOHN WAYNE AP  CLOUDY    63  52  67 SE8       29.90F
LAGUNA BEACH     N/A     62  55  77 CALM      29.89F
LAKE FOREST FR   N/A     56  50  80 CALM      29.81S
HUNTINGTON BCH   N/A     62  56  81 CALM      29.89F
LOS ALAMITOS   CLOUDY    62  57  82 SE6       29.90F HAZE
FULLERTON      CLOUDY    64  56  75 SE6       29.89F
LONG BEACH     CLOUDY    63  55  75 SE7       29.90S
L.A. AP        CLOUDY    61  55  81 SW3       29.90F
L.A. DOWNTOWN  CLOUDY    63  55  75 CALM      29.89F

$$

THE INLAND EMPIRE

CITY           SKY/WX    TMP DP  RH WIND       PRES   REMARKS
CORONA         MOCLDY    58  53  84 W3        29.91S
UPLAND AP      CLOUDY    59  54  82 SW6       29.90F
CHINO          CLOUDY    60  52  74 W7        29.91F
ONTARIO        CLOUDY    60  53  77 SW10      29.90F
SAN BERNARDINO CLOUDY    60  52  73 W5        29.91F
RIVERSIDE AP   CLOUDY    59  53  80 W6        29.90F
MORENO VALLEY    N/A     58  55  90 CALM      29.84S
MARCH ARB      CLOUDY    57  51  82 S5        29.90F
HORSETHIEF CYN   N/A     56  51  84 CALM      29.89S
PERRIS           N/A     55  52  89 W1        29.92S
LAKE ELSINORE    N/A     56  52  86 CALM      29.83F
HEMET AP       CLOUDY    54 N/A N/A W8        29.92S
FRENCH VALLEY  CLOUDY    55  52  88 CALM      29.92F
TEMECULA         N/A     57  55  94 SW5       29.90F

$$

SAN BERNARDINO AND RIVERSIDE COUNTY MOUNTAINS

CITY           SKY/WX    TMP DP  RH WIND       PRES   REMARKS
BIG BEAR AP    CLEAR     39  21  48 CALM      30.03F
BIG BEAR LAKE    N/A     42  23  46 W3        29.81F
LK ARROWHEAD N   N/A     49  41  74 CALM      29.74F
WRIGHTWOOD       N/A     52  23  31 CALM      29.70F
ANGELUS OAKS     N/A     47  28  46 CALM      29.70F
IDYLLWILD        N/A     44  22  42 CALM      29.71F

$$

SOUTHERN DESERT INCLUDING THE COACHELLA VALLEY

CITY           SKY/WX    TMP DP  RH WIND       PRES   REMARKS
PALM SPRINGS   CLEAR     74  48  39 W5        29.74R
THOUSAND PALMS   N/A     71  52  51 W22       29.67F
PALM DESERT      N/A     71  52  50 CALM      31.35S
INDIO            N/A     76  51  41 NW9       29.70S
THERMAL        CLEAR     75  49  39 NW10      29.71S
BORREGO AP     FAIR      73  46  38 NW15G24   29.74S
OCOTILLO WELLS   N/A     78  38  23 NW5       29.64S
CANEBRAKE        N/A     72  32  22 CALM      29.66S
BLYTHE         CLEAR     77  30  17 SW7       29.73F
IMPERIAL AP    CLEAR     72  41  32 S3        29.71F
EL CENTRO NAS  CLEAR     76  32  20 W15       29.72F
YUMA AZ        CLEAR     75  34  22 CALM      29.72S

$$

UPPER DESERT

CITY           SKY/WX    TMP DP  RH WIND       PRES   REMARKS
HESPERIA         N/A     59  48  67 SW9       29.60F
APPLE VALLEY     N/A     59  48  66 N3        29.81F
PALMDALE       CLEAR     62  46  55 S13       29.86F
LANCASTER      CLEAR     64  42  44 W17       29.84F
EDWARDS AFB    CLEAR     64  38  37 SW16      29.80F
GRAY BUTTE AP  FAIR      63  33  32 W9        29.85S
DAGGETT        CLEAR     72  34  24 SW24      29.76F
29 PALMS N     CLEAR     71  34  25 NW6       29.86S
29 PALMS JTNP    N/A     71  34  25 CALM      29.65S
NEEDLES        CLEAR     84  30  14 SW9       29.69R

$$

REGIONAL REPORTS

CITY           SKY/WX    TMP DP  RH WIND       PRES   REMARKS
SANTA BARBARA  CLOUDY    58  53  84 E8        29.88S
SANDBERG       CLEAR     60  34  37 NW15      29.95F
LAS VEGAS NV   CLEAR     72  10   9 SW6       29.74S
PHOENIX AZ     CLEAR     78  19  11 SW5       29.78R
TIJUANA        CLOUDY    57  48  72 CALM      29.94F
ENSENADA NW      N/A     59  32  35 SW6       29.89F

$$

OFFSHORE ISLANDS

CITY           SKY/WX    TMP DP  RH WIND       PRES   REMARKS
CATALINA ARPT  CLOUDY    54  52  93 SW3       29.91F FOG
SAN CLEMENTE I CLOUDY    58  32  37 SW3       29.92F
SAN NICOLAS IS CLOUDY    53  50  89 W8        29.89F

$$

MARINE AND OFFSHORE BUOY REPORTS

STATION/POSITION SKY/WX   TEMP    WIND        PRES    VSBY  SWELL
                          AIR SEA DIR/SP/G                  HT/PER/DIR
                          (F)     (DEG/KT/KT) (MB)    (MI)  (FT/S/D)

$$



 

View Past Reports for San Diego, CA.

Products Courtesy of NOAA-NWS
NWS Information Parsing Script by Ken True at Saratoga Weather - Script by SE Lincoln Weather.